DW7333 Weather Reports


time (UTC)temp
C
wind
direction
speed
KPH
gust
KPH
rain 1hr
cm
rain 24hr
cm
rain mn
cm
humidity
%
barometer
mb
20190420225308 2 20 0.0 0.0 0.00 0.05 0.03 96 1028.6
20190420224809 3 20 0.0 0.0 0.00 0.05 0.03 96 1028.5
20190420224304 3 20 0.0 0.0 0.00 0.05 0.03 96 1028.5
20190420223807 3 27 0.0 0.0 0.00 0.05 0.03 96 1028.6
20190420223305 3 27 0.0 0.0 0.00 0.05 0.03 96 1028.7
20190420222756 3 28 0.0 0.0 0.00 0.05 0.03 96 1028.8
20190420222258 3 28 0.0 0.0 0.00 0.05 0.03 96 1028.8
20190420221803 3 23 0.0 0.0 0.00 0.05 0.03 96 1028.7
20190420221251 3 23 0.0 0.0 0.00 0.05 0.03 96 1028.7
20190420220759 3 23 0.0 0.0 0.00 0.05 0.03 96 1028.7
20190420220251 3 30 0.0 0.0 0.00 0.05 0.03 96 1028.7
20190420215750 3 30 0.0 0.0 0.00 0.05 0.03 96 1028.8
20190420215251 3 30 0.0 0.0 0.00 0.05 0.03 96 1028.7
20190420214748 3 30 0.0 0.0 0.00 0.05 0.03 96 1028.7
20190420214300 3 30 0.0 0.0 0.00 0.05 0.03 96 1028.8
20190420213751 3 30 0.0 0.0 0.00 0.05 0.03 96 1028.7
20190420213252 3 30 0.0 0.0 0.00 0.05 0.03 96 1028.7
20190420212752 3 30 0.0 0.0 0.00 0.05 0.03 96 1028.8
20190420212254 2 30 0.0 0.0 0.00 0.05 0.03 96 1028.7
20190420211746 2 30 0.0 0.0 0.00 0.05 0.03 95 1028.7
20190420211259 2 30 0.0 0.0 0.00 0.05 0.03 95 1028.7
20190420210739 2 30 0.0 0.0 0.00 0.05 0.03 95 1028.5
20190420210250 2 30 0.0 0.0 0.00 0.05 0.03 95 1028.5
20190420205741 2 30 0.0 0.0 0.00 0.05 0.03 95 1028.5
20190420205235 2 30 0.0 0.0 0.00 0.08 0.03 95 1028.4
20190420204738 2 30 0.0 0.0 0.00 0.08 0.03 95 1028.6
20190420204234 2 30 0.0 0.0 0.00 0.08 0.03 95 1028.6
20190420203726 2 30 0.0 0.0 0.00 0.08 0.03 95 1028.5
20190420203235 2 35 0.0 0.0 0.00 0.08 0.03 95 1028.5
20190420202724 3 98 0.0 0.0 0.00 0.08 0.03 95 1028.7
20190420202231 3 98 0.0 0.0 0.00 0.08 0.03 95 1028.6
20190420201729 3 98 0.0 0.0 0.00 0.08 0.03 95 1028.6
20190420201237 3 98 0.0 0.0 0.00 0.08 0.03 95 1028.5
20190420200725 3 98 0.0 0.0 0.00 0.08 0.03 95 1028.4
20190420200218 3 98 0.0 0.0 0.00 0.08 0.03 95 1028.4
20190420195720 3 98 0.0 0.0 0.00 0.08 0.03 95 1028.4
20190420195224 3 67 0.0 0.0 0.00 0.08 0.03 95 1028.1
20190420194719 3 67 0.0 0.0 0.00 0.08 0.03 95 1028.0
20190420194221 3 67 0.0 3.2 0.00 0.10 0.03 95 1028.1
20190420193722 3 67 0.0 3.2 0.00 0.10 0.03 95 1028.0
20190420193212 3 104 0.0 1.6 0.00 0.10 0.03 95 1028.0
20190420192718 3 104 0.0 1.6 0.00 0.10 0.03 95 1028.1
20190420192216 3 104 0.0 1.6 0.00 0.10 0.03 95 1028.0
20190420191714 3 104 0.0 1.6 0.03 0.10 0.03 95 1028.1
20190420191214 3 104 0.0 0.0 0.03 0.10 0.03 95 1028.0
20190420190724 4 104 0.0 0.0 0.03 0.10 0.03 95 1028.2
20190420190220 4 104 1.6 4.8 0.03 0.10 0.03 95 1028.2
20190420185720 4 104 1.6 4.8 0.03 0.10 0.03 95 1028.1
20190420185214 4 68 1.6 4.8 0.03 0.10 0.03 95 1028.2
20190420184716 3 60 3.2 4.8 0.03 0.10 0.03 95 1027.9
20190420184209 3 72 1.6 4.8 0.03 0.10 0.03 94 1028.0
20190420183710 3 72 0.0 3.2 0.03 0.10 0.03 94 1028.1
20190420183219 3 72 0.0 3.2 0.03 0.13 0.03 94 1028.3
20190420182706 3 72 0.0 1.6 0.03 0.13 0.03 94 1028.3
20190420182218 3 72 0.0 1.6 0.03 0.13 0.03 94 1028.3
20190420181706 3 72 0.0 1.6 0.00 0.10 0.00 94 1028.2
20190420181216 4 72 0.0 1.6 0.00 0.10 0.00 94 1028.3
20190420180702 3 72 0.0 1.6 0.00 0.10 0.00 94 1028.4
20190420180206 3 72 0.0 0.0 0.00 0.10 0.00 94 1028.3
20190420175658 3 72 0.0 0.0 0.00 0.10 0.00 93 1028.4
20190420175202 4 72 0.0 0.0 0.00 0.10 0.00 93 1028.5
20190420174709 4 72 0.0 0.0 0.00 0.10 0.00 94 1028.4
20190420174159 4 72 0.0 0.0 0.00 0.10 0.00 94 1028.5
20190420173703 4 72 0.0 0.0 0.00 0.10 0.00 94 1028.4
20190420173200 4 72 0.0 0.0 0.00 0.10 0.00 93 1028.4
20190420172657 4 72 0.0 0.0 0.00 0.10 0.00 93 1028.4
20190420172203 4 72 0.0 1.6 0.00 0.10 0.00 93 1028.4
20190420171655 4 72 0.0 1.6 0.00 0.13 0.00 93 1028.2
20190420171156 4 72 0.0 1.6 0.00 0.13 0.00 93 1028.2
20190420170646 4 72 0.0 0.0 0.00 0.13 0.00 93 1028.3
20190420170149 4 72 0.0 0.0 0.00 0.13 0.00 93 1028.5
20190420165650 4 72 0.0 0.0 0.00 0.13 0.00 93 1028.5
20190420165152 4 72 0.0 0.0 0.00 0.15 0.00 93 1028.4
20190420164644 4 72 0.0 0.0 0.00 0.15 0.00 93 1028.5
20190420164141 5 72 0.0 0.0 0.00 0.15 0.00 93 1028.5
20190420163629 5 72 0.0 0.0 0.00 0.15 0.00 92 1028.4
20190420163134 5 72 0.0 0.0 0.00 0.15 0.00 92 1028.4
20190420162631 5 72 0.0 0.0 0.00 0.15 0.00 92 1028.4
20190420162131 5 72 0.0 0.0 0.00 0.15 0.00 92 1028.2
20190420161633 5 72 0.0 0.0 0.00 0.15 0.00 92 1028.2
20190420161125 5 72 0.0 0.0 0.00 0.15 0.00 92 1028.3
20190420160625 5 72 0.0 0.0 0.00 0.15 0.00 92 1028.3
20190420160125 5 72 0.0 0.0 0.00 0.15 0.00 92 1028.3
20190420155621 5 72 0.0 0.0 0.00 0.15 0.15 92 1028.4
20190420155118 5 72 0.0 0.0 0.00 0.15 0.15 92 1028.3
20190420154620 5 72 0.0 0.0 0.00 0.18 0.15 92 1028.3
20190420154125 5 72 0.0 0.0 0.00 0.18 0.15 92 1028.2
20190420153623 5 72 0.0 0.0 0.00 0.18 0.15 92 1028.3
20190420153114 6 72 0.0 0.0 0.00 0.20 0.15 92 1028.4
20190420152613 6 72 0.0 0.0 0.00 0.20 0.15 92 1028.4
20190420152117 6 72 0.0 0.0 0.00 0.20 0.15 92 1028.4
20190420151610 6 72 0.0 1.6 0.00 0.20 0.15 92 1028.4
20190420151120 6 72 0.0 3.2 0.00 0.23 0.15 92 1028.4
20190420150609 6 72 0.0 3.2 0.00 0.23 0.15 92 1028.4
20190420150120 6 72 0.0 1.6 0.00 0.23 0.15 92 1028.5
20190420145618 6 71 0.0 0.0 0.00 0.23 0.15 91 1028.6
20190420145114 6 71 0.0 0.0 0.00 0.23 0.15 91 1028.5
20190420144613 6 71 0.0 0.0 0.00 0.23 0.15 91 1028.7
20190420144110 6 71 0.0 0.0 0.00 0.23 0.15 90 1028.8
20190420143608 6 71 0.0 0.0 0.00 0.23 0.15 90 1028.9
20190420143104 6 71 0.0 0.0 0.00 0.23 0.15 90 1029.0
20190420142602 6 71 0.0 0.0 0.00 0.23 0.15 90 1028.9
20190420142058 6 71 0.0 0.0 0.00 0.23 0.15 90 1028.9
20190420141556 6 71 0.0 0.0 0.00 0.23 0.15 90 1028.9
20190420141105 6 71 0.0 0.0 0.00 0.23 0.15 90 1028.9
20190420140558 6 71 0.0 0.0 0.00 0.23 0.15 90 1028.9
20190420140102 6 71 0.0 0.0 0.00 0.25 0.15 90 1028.9
20190420135552 7 71 0.0 0.0 0.00 0.25 0.15 90 1028.9
20190420135058 7 71 0.0 0.0 0.00 0.25 0.15 90 1028.9
20190420134551 7 71 0.0 0.0 0.00 0.25 0.15 90 1028.8
20190420134056 7 71 0.0 3.2 0.00 0.25 0.15 90 1028.9
20190420133550 7 71 0.0 3.2 0.00 0.28 0.15 89 1028.8
20190420133058 7 71 0.0 1.6 0.00 0.28 0.15 89 1028.9
20190420132548 7 71 0.0 0.0 0.00 0.28 0.15 89 1029.0
20190420132053 7 71 0.0 0.0 0.00 0.28 0.15 89 1028.9
20190420131556 7 71 0.0 0.0 0.00 0.28 0.15 89 1028.9
20190420131055 7 71 0.0 0.0 0.00 0.28 0.15 89 1028.8
20190420130545 7 71 0.0 1.6 0.00 0.28 0.15 89 1028.7
20190420130052 8 71 0.0 1.6 0.00 0.28 0.15 89 1028.6
20190420125546 8 71 0.0 3.2 0.00 0.30 0.15 88 1028.6
20190420125044 8 71 1.6 4.8 0.00 0.30 0.15 88 1028.7
20190420124545 8 71 0.0 4.8 0.00 0.30 0.15 88 1028.6
20190420124042 8 118 0.0 0.0 0.00 0.30 0.15 87 1028.5
20190420123545 8 118 0.0 0.0 0.00 0.30 0.15 86 1028.5
20190420123045 8 118 0.0 0.0 0.00 0.30 0.15 85 1028.5
20190420122542 8 118 0.0 0.0 0.00 0.30 0.15 84 1028.6
20190420122049 8 118 0.0 0.0 0.00 0.30 0.15 84 1028.7
20190420121537 8 118 0.0 0.0 0.00 0.30 0.15 84 1028.5
20190420121044 8 118 0.0 0.0 0.00 0.30 0.15 84 1028.4
20190420120533 8 118 0.0 0.0 0.00 0.33 0.15 83 1028.3
20190420120043 9 118 0.0 0.0 0.00 0.33 0.15 83 1028.3
20190420115531 9 118 0.0 0.0 0.00 0.33 0.15 83 1028.2
20190420115040 9 118 0.0 1.6 0.00 0.36 0.15 83 1028.2
20190420114530 9 118 1.6 3.2 0.00 0.38 0.15 82 1028.2
20190420114026 10 118 1.6 3.2 0.00 0.38 0.15 81 1028.1
20190420113533 10 118 0.0 1.6 0.00 0.38 0.15 80 1028.0
20190420113033 10 118 0.0 0.0 0.00 0.38 0.15 80 1028.0
20190420112520 10 118 0.0 3.2 0.00 0.38 0.15 80 1028.0
20190420112024 10 118 0.0 3.2 0.00 0.38 0.15 79 1027.8
20190420111537 10 118 1.6 4.8 0.00 0.38 0.15 78 1027.7
20190420111022 11 118 1.6 4.8 0.00 0.38 0.15 77 1027.5
20190420110520 11 160 0.0 3.2 0.00 0.38 0.15 77 1027.6
20190420110030 11 180 0.0 0.0 0.00 0.38 0.15 76 1027.6
20190420105522 11 180 0.0 0.0 0.00 0.41 0.15 75 1027.6
20190420105020 11 180 0.0 1.6 0.00 0.41 0.15 74 1027.5
20190420104529 11 180 0.0 1.6 0.00 0.41 0.15 74 1027.4
20190420104020 12 180 0.0 0.0 0.00 0.41 0.15 74 1027.4
20190420103520 12 180 0.0 1.6 0.00 0.41 0.15 74 1027.3
20190420103016 12 180 0.0 3.2 0.00 0.41 0.15 74 1027.2
20190420102519 12 180 0.0 3.2 0.00 0.41 0.15 73 1027.1
20190420102020 12 180 0.0 0.0 0.00 0.41 0.15 69 1027.0
20190420101516 12 180 0.0 0.0 0.00 0.41 0.15 70 1026.9
20190420101020 13 180 0.0 0.0 0.00 0.41 0.15 70 1026.9
20190420100511 13 180 0.0 0.0 0.00 0.41 0.15 69 1026.9
20190420100009 13 180 0.0 0.0 0.00 0.41 0.15 68 1026.8
20190420095514 13 180 0.0 1.6 0.00 0.41 0.15 67 1026.7
20190420095007 14 180 0.0 4.8 0.00 0.41 0.15 66 1026.6
20190420094516 14 180 1.6 6.4 0.00 0.41 0.15 66 1026.6
20190420094018 14 180 1.6 6.4 0.00 0.41 0.15 65 1026.5
20190420093507 15 195 1.6 6.4 0.00 0.41 0.15 64 1026.4
20190420093014 15 195 1.6 6.4 0.00 0.41 0.15 64 1026.3
20190420092519 15 180 3.2 8.0 0.00 0.41 0.15 62 1026.1
20190420091000 15 105 1.6 8.0 0.00 0.43 0.15 63 1025.9
20190420090500 15 175 1.6 8.0 0.00 0.43 0.15 63 1025.9
20190420090006 15 116 3.2 9.7 0.00 0.43 0.15 63 1025.9
20190420085509 15 140 4.8 11.3 0.00 0.43 0.15 63 1026.0
20190420085006 15 214 4.8 11.3 0.00 0.43 0.15 62 1025.9
20190420084509 15 194 4.8 16.1 0.00 0.43 0.15 63 1025.9
20190420084013 16 131 6.4 19.3 0.00 0.43 0.15 62 1026.1
20190420083503 16 169 6.4 19.3 0.00 0.43 0.15 61 1026.0
20190420083009 16 225 6.4 14.5 0.00 0.43 0.15 61 1026.0
20190420082501 16 197 8.0 14.5 0.00 0.43 0.15 60 1026.1
20190420081957 16 208 8.0 16.1 0.00 0.43 0.15 59 1026.0
20190420081500 16 189 9.7 17.7 0.00 0.43 0.15 59 1025.9
20190420080959 16 235 8.0 17.7 0.00 0.43 0.15 58 1025.8
20190420080452 16 153 6.4 16.1 0.00 0.43 0.15 59 1025.7
20190420080000 16 161 4.8 11.3 0.00 0.43 0.15 60 1025.6
20190420075456 16 220 4.8 12.9 0.00 0.43 0.15 60 1025.6
20190420075002 16 170 4.8 19.3 0.00 0.43 0.15 61 1025.7
20190420074455 16 245 6.4 19.3 0.00 0.43 0.15 60 1025.6
20190420073959 15 180 4.8 11.3 0.00 0.43 0.15 62 1025.7
20190420073501 15 250 4.8 12.9 0.00 0.43 0.15 63 1025.7
20190420072951 15 210 6.4 12.9 0.00 0.43 0.15 64 1025.8
20190420072457 15 200 6.4 12.9 0.00 0.43 0.15 63 1025.8
20190420071959 15 214 6.4 12.9 0.00 0.43 0.15 64 1025.7
20190420071459 15 198 8.0 14.5 0.00 0.43 0.15 63 1025.6
20190420070949 15 192 8.0 24.1 0.00 0.43 0.15 63 1025.7
20190420070458 15 254 9.7 24.1 0.00 0.43 0.15 62 1025.5
20190420065958 16 203 9.7 19.3 0.00 0.43 0.15 60 1025.4
20190420065455 16 202 9.7 20.9 0.00 0.43 0.15 61 1025.4
20190420064949 16 199 8.0 20.9 0.00 0.43 0.15 59 1025.4
20190420064454 16 171 6.4 14.5 0.00 0.43 0.15 63 1025.3
20190420063949 16 189 6.4 14.5 0.00 0.43 0.15 63 1025.3
20190420063451 15 214 6.4 14.5 0.00 0.43 0.15 64 1025.3
20190420062950 15 204 6.4 16.1 0.00 0.43 0.15 63 1025.4
20190420062451 16 199 8.0 16.1 0.00 0.43 0.15 62 1025.4
20190420061952 15 228 8.0 17.7 0.00 0.43 0.15 63 1025.4
20190420061457 15 202 9.7 20.9 0.00 0.43 0.15 61 1025.4
20190420060958 15 217 9.7 20.9 0.00 0.43 0.15 61 1025.4
20190420060456 15 175 8.0 16.1 0.00 0.43 0.15 61 1025.4
20190420055956 16 185 9.7 16.1 0.00 0.56 0.15 60 1025.3
20190420055452 16 132 8.0 16.1 0.00 0.61 0.15 60 1025.2
20190420054955 16 205 8.0 17.7 0.00 0.61 0.15 60 1025.3
20190420054448 16 152 6.4 17.7 0.00 0.61 0.15 61 1025.3
20190420053947 16 175 4.8 11.3 0.00 0.61 0.15 63 1025.3
20190420053455 16 161 4.8 14.5 0.00 0.61 0.15 65 1025.3
20190420052948 16 222 6.4 14.5 0.00 0.61 0.15 63 1025.2
20190420052446 16 131 6.4 11.3 0.00 0.61 0.15 65 1025.2
20190420051951 16 195 3.2 9.7 0.00 0.61 0.15 67 1025.3
20190420051447 16 175 3.2 9.7 0.00 0.61 0.15 65 1025.3
20190420051001 16 158 1.6 9.7 0.00 0.61 0.15 67 1025.3
20190420050443 16 144 1.6 6.4 0.00 0.61 0.15 70 1025.3
20190420045950 16 122 1.6 6.4 0.00 0.61 0.15 68 1025.3
20190420045450 16 223 1.6 4.8 0.00 0.61 0.15 68 1025.4
20190420044946 16 162 4.8 16.1 0.00 0.61 0.15 68 1025.5
20190420044451 16 175 6.4 16.1 0.00 0.61 0.15 65 1025.6
20190420043937 16 230 4.8 16.1 0.00 0.64 0.15 65 1025.6
20190420043441 16 180 6.4 19.3 0.00 0.64 0.15 65 1025.6
20190420042934 16 190 6.4 19.3 0.00 0.64 0.15 65 1025.8
20190420042435 16 218 6.4 12.9 0.00 0.64 0.15 65 1025.7
20190420041927 16 142 8.0 22.5 0.00 0.64 0.15 64 1025.8
20190420041427 16 295 4.8 22.5 0.00 0.64 0.15 61 1025.9
20190420040930 17 206 3.2 11.3 0.00 0.64 0.15 65 1025.9
20190420040424 16 102 3.2 8.0 0.00 0.64 0.15 65 1026.0
20190420035931 17 200 3.2 11.3 0.00 0.64 0.15 66 1026.3
20190420035425 17 319 3.2 11.3 0.00 0.64 0.15 66 1026.3
20190420034927 17 355 1.6 6.4 0.00 0.64 0.15 68 1026.4
20190420034429 16 346 1.6 6.4 0.00 0.64 0.15 69 1026.4
20190420033923 16 235 1.6 4.8 0.00 0.64 0.15 72 1026.4
20190420033429 16 65 3.2 4.8 0.00 0.64 0.15 72 1026.5
20190420032920 16 77 1.6 8.0 0.00 0.64 0.15 71 1026.6
20190420032418 16 190 3.2 8.0 0.00 0.64 0.15 75 1026.6
20190420031921 15 351 1.6 6.4 0.00 0.64 0.15 76 1026.6
20190420031414 15 358 0.0 6.4 0.00 0.64 0.15 79 1026.6
20190420030916 14 21 0.0 3.2 0.00 0.64 0.15 80 1026.7
20190420030423 14 355 1.6 3.2 0.00 0.64 0.15 82 1026.7
20190420025909 13 19 1.6 6.4 0.00 0.66 0.15 83 1026.7
20190420025407 13 19 3.2 8.0 0.00 0.66 0.15 83 1026.7
20190420024909 13 22 4.8 8.0 0.00 0.69 0.15 86 1026.6
20190420024410 13 355 4.8 8.0 0.00 0.69 0.15 88 1026.4
20190420023910 13 353 3.2 8.0 0.00 0.69 0.15 92 1026.5
20190420023409 12 4 3.2 8.0 0.00 0.69 0.15 93 1026.7
20190420022918 12 38 3.2 8.0 0.00 0.69 0.15 94 1026.6
20190420022421 12 8 3.2 6.4 0.00 0.69 0.15 95 1026.6
20190420021909 11 346 3.2 6.4 0.00 0.69 0.15 96 1026.6
20190420021407 11 358 1.6 6.4 0.00 0.69 0.15 97 1026.6
20190420020905 11 350 1.6 6.4 0.00 0.69 0.15 97 1026.6
20190420020420 10 348 1.6 6.4 0.00 0.69 0.15 97 1026.6
20190420015909 10 301 3.2 8.0 0.00 0.69 0.15 97 1026.7
20190420015406 10 8 3.2 8.0 0.00 0.69 0.15 98 1026.7
20190420014902 10 22 3.2 6.4 0.00 0.69 0.15 98 1026.7
20190420014406 10 1 1.6 4.8 0.00 0.69 0.15 98 1026.8
20190420013900 10 0 1.6 4.8 0.00 0.69 0.15 98 1026.8
20190420013400 10 0 1.6 4.8 0.00 0.69 0.15 98 1026.8
20190420012858 10 10 1.6 4.8 0.00 0.69 0.15 98 1026.9
20190420012403 9 22 3.2 6.4 0.00 0.69 0.15 98 1026.7
20190420011902 9 22 3.2 8.0 0.00 0.69 0.15 98 1026.6
20190420011356 9 1 3.2 8.0 0.00 0.69 0.15 98 1026.5
20190420010906 8 37 3.2 6.4 0.00 0.69 0.15 98 1026.6
20190420010355 8 29 3.2 4.8 0.00 0.69 0.15 98 1026.6
20190420005902 8 24 1.6 4.8 0.00 0.69 0.15 98 1026.5
20190420005355 8 25 0.0 4.8 0.00 0.69 0.15 98 1026.4
20190420004855 8 23 0.0 0.0 0.00 0.69 0.15 98 1026.5
20190420004352 8 22 0.0 0.0 0.00 0.69 0.15 98 1026.5
20190420003900 8 22 0.0 0.0 0.00 0.69 0.15 98 1026.4
20190420003358 8 22 0.0 0.0 0.03 0.69 0.15 98 1026.3
20190420002851 8 24 0.0 0.0 0.03 0.69 0.15 98 1026.3
20190420002351 8 25 0.0 0.0 0.03 0.71 0.15 98 1026.2
20190420001851 8 25 0.0 0.0 0.03 0.71 0.15 98 1026.2
20190420001356 8 25 0.0 0.0 0.03 0.71 0.15 99 1026.2
20190420000858 8 25 0.0 0.0 0.03 0.71 0.15 99 1026.1
20190420000347 7 25 0.0 0.0 0.03 0.71 0.15 99 1026.0
20190419235856 7 25 0.0 0.0 0.03 0.71 0.15 99 1025.9
20190419235345 7 25 0.0 0.0 0.03 0.71 0.15 99 1025.9
20190419234844 7 25 0.0 0.0 0.03 0.71 0.15 99 1025.9
20190419234353 6 25 0.0 0.0 0.03 0.71 0.15 98 1025.7
20190419233849 6 25 0.0 0.0 0.03 0.71 0.15 98 1025.6
20190419233347 6 25 0.0 0.0 0.00 0.71 0.15 98 1025.6
20190419232840 6 25 0.0 0.0 0.00 0.71 0.15 98 1025.5
20190419232346 6 25 0.0 0.0 0.00 0.71 0.15 98 1025.5
20190419231840 6 25 0.0 0.0 0.00 0.71 0.15 98 1025.4
20190419231349 6 39 0.0 0.0 0.00 0.71 0.15 98 1025.4
20190419230840 6 39 0.0 0.0 0.00 0.71 0.15 98 1025.4
20190419230343 6 39 0.0 0.0 0.00 0.71 0.15 98 1025.3
20190419225844 5 39 0.0 0.0 0.00 0.71 0.15 98 1025.2